Preview of NWS' New Version of Forecast
This preview is not operational and should not be used for support decisions.

Regional Weather Roundup (RWR)

Issued by State College, PA (CTP)

                            
000
ASUS41 KCTP 160810
RWRCTP

REGIONAL WEATHER ROUNDUP
NATIONAL WEATHER SERVICE STATE COLLEGE PA
400 AM EDT TUE OCT 16 2018

Note: "fair" indicates few or no clouds below 12,000 feet with no 
significant weather and/or obstructions to visibility.

* = STATION THAT DOES NOT REPORT PRECIPITATION /E.G. RAIN...SNOW...ETC/
    THUNDER OR FOG.

PAZ002>004-007>009-013>016-020>023-029>032-160900-
WESTERN PENNSYLVANIA
  
CITY           SKY/WX    TMP DP  RH WIND       PRES   REMARKS
ERIE           CLOUDY    45  29  53 W14G23    30.19S                  
MEADVILLE      CLOUDY    39  35  86 CALM      30.18S                  
FRANKLIN*      CLOUDY    38  33  82 SW6       30.18F                  
NEW CASTLE     PTSUNNY   39  36  89 SW3       30.22S                  
BEAVER COUNTY  NOT AVBL                                               
BUTLER*        FAIR      38  36  92 W3        30.21R                  
PITTSBURGH INT MOCLDY    39  36  89 W8        30.21S                  
PITTSBURGH     FAIR      41  36  82 NW5       30.20S                  
INDIANA*       CLEAR     41  39  93 NW6       30.22S                  
LATROBE        FAIR      41  39  93 CALM      30.20F                  
WASHINGTON CO* FAIR      41  36  82 W7        30.24F                  
$$

PAZ004>006-010>012-017>019-024>028-033>037-041-042-045-046-049>053-160900-
CENTRAL PENNSYLVANIA
  
CITY           SKY/WX    TMP DP  RH WIND       PRES   REMARKS
BRADFORD       FAIR      34  30  85 CALM      30.12S                  
DUBOIS         CLOUDY    37  30  75 W6        30.15R                  
CLEARFIELD     FAIR      39  32  76 W6        30.17R                  
JOHNSTOWN      CLOUDY    40  35  83 NW13G18   30.16R                  
ALTOONA        LGT RAIN  46  36  68 W6        30.16S                  
STATE COLLEGE  MOCLDY    43  32  66 NW5       30.17R                  
WILLIAMSPORT   FAIR      45  31  58 NW12      30.13R                  
SELINSGROVE    FAIR      48  35  60 NW8       30.15R                  
FT INDIANTOWN  FAIR      52  37  57 W9        30.12R                  
CAPITAL CITY   FAIR      54  35  48 NW9G20    30.13R                  
HARRISBURG     CLOUDY    53  36  52 NW12      30.12R                  
YORK           FAIR      52  40  63 NW9       30.13R                  
$$

PAZ038>040-043-044-047-048-054-055-060>062-067>071-160900-
EASTERN PENNSYLVANIA
  
CITY           SKY/WX    TMP DP  RH WIND       PRES   REMARKS
SCRANTON       FAIR      44  31  60 NW13G24   30.11R                  
MOUNT POCONO   FAIR      42  35  76 NW16G28   30.04R                  
ALLENTOWN      FAIR      53  36  52 NW9       30.08R                  
QUAKERTOWN*    SUNNY     52  43  71 VRB6G16   30.07R                  
READING        FAIR      53  43  68 W13       30.09R                  
LANCASTER      FAIR      52  41  66 W12       30.11R                  
COATESVILLE    FAIR      52  39  62 W7        30.11R                  
POTTSTOWN      FAIR      52  40  63 NW9       30.10R                  
BLUE BELL      FAIR      52  41  66 W5        30.08R                  
DOYLESTOWN     FAIR      53  42  66 MISG      30.05R                  
WILLOW GROVE   NOT AVBL                                               
NORTH PHILA    FAIR      58  43  57 NW14G21   30.08R                  
PHILADELPHIA   CLOUDY    57  41  55 NW15      30.08R                  
$$